When you browse on this site, cookies collect data to enhance your experience and personalize the content and advertising you see.
Visit our Privacy Policy to learn more. By continuing to use the site, you agree to this use of cookies and data.
  • In Österreich
  • Länderverzeichnis
  • Für 7 Tage
  • Wassertemperatur
  • Wetterkarte
  • News
  • Widgets
  • user-avatar
    Anmelden

    Stündliche Wetter Emiliano Zapata

    Heute, 2 Juni, Dienstag

    Zeit Temperatur Niederschläge Wind Luftdruck Luftfeuchtigkeit
    00:00 +13°C° 0 mm 1 m/S 566 mmHg 87%
    01:00 +13°C° 0 mm 1 m/S 565 mmHg 87%
    02:00 +13°C° 0 mm 1 m/S 565 mmHg 88%
    03:00 +13°C° 0 mm 1 m/S 565 mmHg 87%
    04:00 +13°C° 0 mm 1 m/S 565 mmHg 86%
    05:00 +12°C° 0 mm 1 m/S 565 mmHg 89%
    06:00 +14°C° 0 mm 1 m/S 566 mmHg 79%
    07:00 +16°C° 0 mm 2 m/S 567 mmHg 69%
    08:00 +18°C° 0 mm 2 m/S 568 mmHg 59%
    09:00 +19°C° 0 mm 3 m/S 568 mmHg 53%
    10:00 +21°C° 0 mm 3 m/S 569 mmHg 46%
    11:00 +23°C° 0 mm 4 m/S 570 mmHg 39%
    12:00 +23°C° 0 mm 4 m/S 569 mmHg 40%
    13:00 +23°C° 0 mm 5 m/S 568 mmHg 41%
    14:00 +23°C° 0 mm 5 m/S 568 mmHg 42%
    15:00 +22°C° 0.1 mm 5 m/S 567 mmHg 48%
    16:00 +21°C° 0.1 mm 5 m/S 567 mmHg 54%
    17:00 +20°C° 0.1 mm 5 m/S 566 mmHg 60%
    18:00 +18°C° 0 mm 4 m/S 566 mmHg 68%
    19:00 +16°C° 0 mm 3 m/S 566 mmHg 76%
    20:00 +15°C° 0 mm 2 m/S 566 mmHg 84%
    21:00 +14°C° 0 mm 2 m/S 566 mmHg 85%
    22:00 +14°C° 0 mm 2 m/S 566 mmHg 86%
    23:00 +14°C° 0 mm 2 m/S 566 mmHg 88%

    Morgen, 3 Juni, Mittwoch

    Zeit Temperatur Niederschläge Wind Luftdruck Luftfeuchtigkeit
    00:00 +13°C° 0 mm 2 m/S 565 mmHg 89%
    01:00 +13°C° 0 mm 1 m/S 565 mmHg 90%
    02:00 +13°C° 0 mm 1 m/S 564 mmHg 90%
    03:00 +13°C° 0 mm 1 m/S 564 mmHg 89%
    04:00 +13°C° 0 mm 1 m/S 564 mmHg 88%
    05:00 +13°C° 0 mm 1 m/S 564 mmHg 87%
    06:00 +14°C° 0 mm 2 m/S 565 mmHg 79%
    07:00 +16°C° 0 mm 2 m/S 566 mmHg 71%
    08:00 +18°C° 0 mm 2 m/S 567 mmHg 63%
    09:00 +19°C° 0 mm 3 m/S 567 mmHg 56%
    10:00 +21°C° 0 mm 4 m/S 568 mmHg 50%
    11:00 +23°C° 0 mm 5 m/S 568 mmHg 43%
    12:00 +23°C° 0 mm 5 m/S 568 mmHg 43%
    13:00 +23°C° 0 mm 5 m/S 567 mmHg 44%
    14:00 +23°C° 0 mm 5 m/S 567 mmHg 44%
    15:00 +22°C° 0.1 mm 5 m/S 566 mmHg 49%
    16:00 +21°C° 0.1 mm 5 m/S 566 mmHg 53%
    17:00 +20°C° 0.1 mm 6 m/S 565 mmHg 58%
    18:00 +18°C° 0 mm 4 m/S 565 mmHg 66%
    19:00 +17°C° 0 mm 3 m/S 565 mmHg 74%
    20:00 +15°C° 0 mm 2 m/S 565 mmHg 82%
    21:00 +15°C° 0 mm 2 m/S 564 mmHg 85%
    22:00 +14°C° 0 mm 2 m/S 564 mmHg 87%
    23:00 +14°C° 0 mm 1 m/S 564 mmHg 90%

    übermorgen, 4 Juni, Donnerstag

    Zeit Temperatur Niederschläge Wind Luftdruck Luftfeuchtigkeit
    00:00 +13°C° 0 mm 1 m/S 564 mmHg 90%
    01:00 +13°C° 0 mm 1 m/S 564 mmHg 90%
    02:00 +13°C° 0 mm 1 m/S 563 mmHg 90%
    03:00 +13°C° 0 mm 1 m/S 563 mmHg 90%
    04:00 +12°C° 0 mm 1 m/S 563 mmHg 91%
    05:00 +12°C° 0 mm 1 m/S 562 mmHg 91%
    06:00 +14°C° 0 mm 1 m/S 564 mmHg 79%
    07:00 +16°C° 0 mm 2 m/S 565 mmHg 67%
    08:00 +18°C° 0 mm 2 m/S 566 mmHg 55%
    09:00 +20°C° 0 mm 3 m/S 567 mmHg 48%
    10:00 +22°C° 0 mm 4 m/S 567 mmHg 42%
    11:00 +23°C° 0 mm 4 m/S 568 mmHg 35%
    12:00 +25°C° 0 mm 5 m/S 567 mmHg 35%
    13:00 +25°C° 0 mm 5 m/S 567 mmHg 35%
    14:00 +25°C° 0 mm 5 m/S 567 mmHg 36%
    15:00 +23°C° 0 mm 5 m/S 566 mmHg 42%
    16:00 +22°C° 0 mm 6 m/S 565 mmHg 48%
    17:00 +20°C° 0 mm 6 m/S 564 mmHg 54%
    18:00 +17°C° 0 mm 5 m/S 564 mmHg 63%
    19:00 +17°C° 0 mm 4 m/S 564 mmHg 72%
    20:00 +14°C° 0 mm 3 m/S 564 mmHg 81%
    21:00 +15°C° 0 mm 2 m/S 564 mmHg 83%
    22:00 +14°C° 0 mm 2 m/S 564 mmHg 85%
    23:00 +14°C° 0 mm 2 m/S 564 mmHg 87%

    5 Juni, Freitag

    Zeit Temperatur Niederschläge Wind Luftdruck Luftfeuchtigkeit
    00:00 +14°C° 0 mm 2 m/S 564 mmHg 86%
    01:00 +14°C° 0 mm 2 m/S 564 mmHg 85%
    02:00 +14°C° 0 mm 2 m/S 563 mmHg 83%
    03:00 +13°C° 0 mm 1 m/S 563 mmHg 86%
    04:00 +13°C° 0 mm 1 m/S 563 mmHg 89%
    05:00 +12°C° 0 mm 1 m/S 563 mmHg 91%
    06:00 +14°C° 0 mm 2 m/S 564 mmHg 81%
    07:00 +16°C° 0 mm 2 m/S 565 mmHg 71%
    08:00 +18°C° 0 mm 2 m/S 566 mmHg 60%
    09:00 +20°C° 0 mm 3 m/S 567 mmHg 53%
    10:00 +21°C° 0 mm 3 m/S 567 mmHg 45%
    11:00 +23°C° 0 mm 4 m/S 568 mmHg 38%
    12:00 +23°C° 0 mm 4 m/S 567 mmHg 38%
    13:00 +25°C° 0 mm 5 m/S 567 mmHg 37%
    14:00 +25°C° 0 mm 5 m/S 567 mmHg 37%
    15:00 +23°C° 0.1 mm 5 m/S 566 mmHg 44%
    16:00 +21°C° 0.1 mm 5 m/S 565 mmHg 51%
    17:00 +20°C° 0.1 mm 5 m/S 565 mmHg 58%
    18:00 +18°C° 0 mm 4 m/S 564 mmHg 66%
    19:00 +16°C° 0 mm 3 m/S 564 mmHg 74%
    20:00 +15°C° 0 mm 2 m/S 564 mmHg 82%
    21:00 +14°C° 0 mm 2 m/S 564 mmHg 84%
    22:00 +14°C° 0 mm 1 m/S 564 mmHg 86%
    23:00 +13°C° 0 mm 1 m/S 564 mmHg 89%

    6 Juni, Samstag

    Zeit Temperatur Niederschläge Wind Luftdruck Luftfeuchtigkeit
    00:00 +13°C° 0 mm 1 m/S 563 mmHg 88%
    01:00 +13°C° 0 mm 1 m/S 563 mmHg 88%
    02:00 +13°C° 0 mm 1 m/S 563 mmHg 87%
    03:00 +11°C° 0 mm 0 m/S 563 mmHg 89%
    04:00 +10°C° 0 mm 0 m/S 562 mmHg 90%
    05:00 +10°C° 0 mm 0 m/S 562 mmHg 92%
    06:00 +12°C° 0 mm 0 m/S 564 mmHg 78%
    07:00 +16°C° 0 mm 1 m/S 565 mmHg 64%
    08:00 +19°C° 0 mm 1 m/S 566 mmHg 50%
    09:00 +21°C° 0 mm 1 m/S 567 mmHg 42%
    10:00 +21°C° 0 mm 2 m/S 567 mmHg 34%
    11:00 +24°C° 0 mm 3 m/S 568 mmHg 27%
    12:00 +25°C° 0 mm 3 m/S 567 mmHg 26%
    13:00 +25°C° 0 mm 3 m/S 567 mmHg 25%
    14:00 +26°C° 0 mm 4 m/S 567 mmHg 24%
    15:00 +25°C° 0.1 mm 4 m/S 566 mmHg 33%
    16:00 +23°C° 0.1 mm 5 m/S 565 mmHg 41%
    17:00 +21°C° 0.1 mm 5 m/S 565 mmHg 49%
    18:00 +19°C° 0.1 mm 4 m/S 565 mmHg 60%
    19:00 +17°C° 0.1 mm 3 m/S 564 mmHg 72%
    20:00 +15°C° 0.1 mm 2 m/S 564 mmHg 84%
    21:00 +15°C° 0 mm 1 m/S 564 mmHg 86%
    22:00 +14°C° 0 mm 1 m/S 564 mmHg 88%
    23:00 +13°C° 0 mm 0 m/S 564 mmHg 91%

    7 Juni, Sonntag

    Zeit Temperatur Niederschläge Wind Luftdruck Luftfeuchtigkeit
    00:00 +12°C° 0 mm 0 m/S 563 mmHg 91%
    01:00 +12°C° 0 mm 0 m/S 563 mmHg 91%
    02:00 +12°C° 0 mm 1 m/S 562 mmHg 91%
    03:00 +12°C° 0 mm 1 m/S 562 mmHg 91%
    04:00 +12°C° 0 mm 1 m/S 562 mmHg 92%
    05:00 +12°C° 0 mm 1 m/S 562 mmHg 92%
    06:00 +14°C° 0 mm 1 m/S 563 mmHg 80%
    07:00 +16°C° 0 mm 1 m/S 564 mmHg 69%
    08:00 +20°C° 0 mm 1 m/S 566 mmHg 57%
    09:00 +20°C° 0 mm 2 m/S 566 mmHg 48%
    10:00 +23°C° 0 mm 2 m/S 567 mmHg 39%
    11:00 +25°C° 0 mm 2 m/S 568 mmHg 30%
    12:00 +26°C° 0 mm 3 m/S 567 mmHg 28%
    13:00 +27°C° 0 mm 3 m/S 567 mmHg 26%
    14:00 +27°C° 0 mm 3 m/S 567 mmHg 24%
    15:00 +26°C° 0 mm 3 m/S 566 mmHg 30%
    16:00 +25°C° 0 mm 4 m/S 566 mmHg 35%
    17:00 +23°C° 0 mm 4 m/S 565 mmHg 41%
    18:00 +21°C° 0.1 mm 3 m/S 565 mmHg 52%
    19:00 +19°C° 0.1 mm 3 m/S 564 mmHg 62%
    20:00 +17°C° 0.1 mm 2 m/S 564 mmHg 73%
    21:00 +17°C° 0 mm 2 m/S 564 mmHg 75%
    22:00 +16°C° 0 mm 2 m/S 564 mmHg 77%
    23:00 +16°C° 0 mm 1 m/S 564 mmHg 79%
    Mehr zeigen